Location: North Evanston
(42.0634°N, 87.6976°W)
Time: 20:44:37
(UTC+00:00)

Vanguard 2 Rocket - Pass Details

Date: 17 May 2026
Orbit: 553 x 3286 km, 32.9° (Epoch: 6 June)

Event Time Altitude Azimuth Distance (km) Brightness Sun altitude
Rises 17:33:05 0° 252° (WSW) 5,280 10.9 67.2°
Reaches altitude 10° 17:36:04 10° 249° (WSW) 4,589 10.7 67.3°
Maximum altitude 17:49:49 62° 173° (S) 3,135 12.5 67.4°
Drops below altitude 10° 18:09:15 10° 100° (E) 6,230 11.3 66.9°
Sets 18:14:07 0° 97° (E) 7,197 11.4 66.7°
